Powrót do katalogu

CZ-4 DEB

AktywnySSO
NORAD 26196·DEBRIS·🇨🇳 China

Wystrzelony Oct 14, 1999 z Taiyuan Satellite Launch Center

Loading…

Następne Przeloty (najbliższe 24 godziny)

TLE

ŚwieżeSource: Space-Track

Epoka: Sep 14, 2026, 13:45 UTC

1 26196U 99057CJ  26257.57355720  .00000337  00000-0  24422-3 0  9990
2 26196  98.8814 148.5334 0335941 316.6659 159.1123 13.78929961329341

Śledź CZ-4 DEB w czasie rzeczywistym z AllMySat

Download on the App Store